STARLINK-30168, 57513

Orbit data source: Space-Track

STARLINK-30168, 57513 is a payload satellite owned by SpaceX/Seattle (US) in LEO that was launched on Mon, 07 Aug 2023 UTC via an FALCON 9 launch vehicle from the Air Force Eastern Test Range (AFETR). Payload-class satellites include a variety of spacecraft equipped with specific instruments for various scientific and technological missions. These include communications satellites like Starlink; space stations such as the ISS; scientific satellites like the Hubble; Earth observation satellites from companies like Planet Labs, Umbra, and HawkEye 360; GPS; miniature CubeSats for education and research; and military/defense satellites.

Loading next visibility...
Identifier
57513, 2023-113U
Orbit
LEO
Country
Flag of USUS
Related business
Manufacturer
SpaceX/Seattle
Mission
Operational Commercial Communications
Bus & Motor
STARLINK V2M, Unknown motor
Mass
730 kg wet, ~700 kg dry
Launch date (UTC)
2023-08-07 (3 years ago)
Launch vehicle
FALCON 9
Launch site
Air Force Eastern Test Range (AFETR)
Object type
Payload
Rocket body
Debris
Shape & HBR
Box + 2 Pan, 17.7 m
Radar Cross Section
33.884 m², Large (>1 m²)

Expand to show TLE details & history
Last TLE update: 2 days ago

TLE from 2 days ago
0 STARLINK-30168
1 57513U 23113U   26171.31550061  .00001018  00000-0  46515-4 0  9994
2 57513  43.0008 156.1957 0001111 272.4027  87.6698 15.27579675159216
Epoch: 2026-06-20T07:34Z
TLE epoch observation values (Epoch: 2026-06-20T07:34:19.252Z)
Latitude
0.00001°
Longitude
134.08361°
Altitude
482.795 km
Speed
7.626 km/s
True Right ascension
10h 24m 46s
True Declination
0° 00' 00"
Sunlit
Object was in daylight at epoch
Visualization orbit readout
Latitude
Unknown
Longitude
Unknown
Altitude
Unknown
Speed
Unknown
Apparent Right ascension
Unknown
Apparent Declination
Unknown
Sunlit
N/A
Visualization observer readout
Local Sidereal Time
21:28:55
Azimuth
Unknown
Elevation
Unknown
Doppler factor
Unknown
Orbital elements
Apogee altitude
485.758 km
Perigee altitude
484.233 km
Semi-major axis
6,863.132 km
Eccentricity
0.00011
Inclination
43.0008°
RAAN
156.1957°
Arg. of periapsis
272.4027°
True anomaly
87.68252°
Mean anomaly
87.6698°
Eccentric anomaly
87.67616°
Mean motion
3.81733 °/min
Orbital period
94.31 mins
BSTAR
0.000046515
Loading maneuver chart data...
Computing Atmospheric mass density...
Loading historical data...
Loading historical data...
Loading historical data...
Loading historical data...
Loading historical data...
Loading historical data...
Loading historical data...

Documentation

Showing up to 5 results
|